Home   Weather   Linz   Past weeks

Flag for Austria Past Weather in Linz, Upper Austria, Austria — Yesterday and Last 2 Weeks

Now
41 °F

Passing clouds.


Feels Like: 39 °F
Forecast: 36 / 65 °F
Wind: 3 mph from East

Location: Linz / Hoersching-Flughafen

Current Time: Apr 24, 2017 at 9:38:58 am

Latest Report: Apr 24, 2017 at 8:50 am


Visibility: N/A

Pressure: 30.15 "Hg

Humidity: 66%

Dew Point: 30 °F

Location of LinzLocation

Past Weather in Linz — Graph

°F

Linz Temperature Yesterday

Maximum temperature yesterday: 50 °F (at 3:50 pm)
Minimum temperature yesterday: 39 °F (at 3:50 am)
Average temperature yesterday: 44 °F

High & Low Weather Summary for the Past Weeks

 TemperatureHumidityPressure
High72 °F (Apr 10, 3:20 pm)100% (Apr 18, 8:50 pm)30.51 "Hg (Apr 18, 8:50 pm)
Low28 °F (Apr 20, 5:20 am)33% (Apr 9, 5:20 pm)29.83 "Hg (Apr 13, 5:50 am)
Average46 °F69%30.13 "Hg
* Reported Apr 9 8:20 am — Apr 24 8:20 am, Linz, Weather by CustomWeather, © 2017

Note: Actual official high and low records may vary slightly from our data, if they occured in-between our weather recording intervals... More about our weather records

Advertising

Linz Weather History for the Previous 24 Hours

Scroll right to see more
 ConditionsComfort  
Time TempWeatherWind HumidityBarometerVisibility
8:20 am
Mon, Apr 24
39 °FPassing clouds.5 mph70%30.15 "HgN/A
7:50 am37 °FSunny.1 mph75%30.15 "Hg10 mi
7:20 am32 °FSunny.2 mph87%30.15 "Hg10 mi
6:50 am32 °FPassing clouds.3 mph87%30.15 "HgN/A
6:20 am30 °FPassing clouds.2 mph86%30.15 "HgN/A
5:50 am30 °FPassing clouds.2 mph86%30.18 "HgN/A
5:20 am30 °FPassing clouds.1 mph86%30.18 "HgN/A
4:50 am32 °FChilly.2 mph80%30.18 "HgN/A
4:20 am30 °FChilly.5 mph86%30.18 "HgN/A
3:50 am32 °FChilly.6 mph80%30.18 "HgN/A
3:20 am34 °FChilly.5 mph75%30.18 "HgN/A
2:50 am36 °FChilly.5 mph75%30.21 "HgN/A
2:20 am34 °FChilly.7 mph81%30.21 "HgN/A
1:50 am36 °FChilly.2 mph75%30.21 "HgN/A
1:20 am37 °FChilly.2 mph70%30.21 "HgN/A
12:50 am39 °FPassing clouds.3 mph65%30.21 "HgN/A
12:20 am39 °FPassing clouds.2 mph65%30.24 "HgN/A
11:50 pm
Sun, Apr 23
39 °FPassing clouds.6 mph70%30.21 "HgN/A
11:20 pm41 °FPassing clouds.6 mph66%30.24 "HgN/A
10:50 pm41 °FPassing clouds.6 mph66%30.24 "HgN/A
10:20 pm41 °FPassing clouds.8 mph66%30.21 "HgN/A
9:50 pm43 °FPassing clouds.10 mph57%30.21 "HgN/A
9:20 pm43 °FPassing clouds.9 mph57%30.21 "HgN/A
8:50 pm43 °FPassing clouds.9 mph57%30.21 "HgN/A
8:20 pm45 °FPassing clouds.12 mph53%30.18 "HgN/A
7:50 pm46 °FOvercast.14 mph46%30.18 "HgN/A
7:20 pm46 °FPartly sunny.13 mph46%30.18 "HgN/A
6:50 pm46 °FPartly sunny.17 mph46%30.18 "HgN/A
6:20 pm48 °FPartly sunny.16 mph43%30.18 "HgN/A
5:50 pm48 °FScattered clouds.21 mph46%30.15 "HgN/A
5:20 pm48 °FScattered clouds.17 mph50%30.15 "HgN/A
4:50 pm48 °FScattered clouds.18 mph50%30.15 "HgN/A
4:20 pm48 °FScattered clouds.21 mph50%30.15 "HgN/A
3:50 pm50 °FBroken clouds.18 mph50%30.15 "HgN/A
3:20 pm48 °FBroken clouds.17 mph54%30.15 "HgN/A
2:50 pm48 °FBroken clouds.22 mph50%30.15 "HgN/A
2:20 pm46 °FBroken clouds.17 mph53%30.18 "HgN/A
1:50 pm46 °FBroken clouds.18 mph53%30.18 "HgN/A
1:20 pm46 °FBroken clouds.22 mph57%30.18 "HgN/A
12:50 pm45 °FBroken clouds.18 mph61%30.18 "HgN/A
12:20 pm46 °FScattered showers. Broken clouds.16 mph53%30.18 "HgN/A
11:50 am46 °FBroken clouds.15 mph57%30.18 "HgN/A
11:20 am45 °FBroken clouds.17 mph61%30.18 "HgN/A
10:50 am45 °FScattered clouds.15 mph61%30.18 "HgN/A
10:20 am45 °FScattered clouds.16 mph57%30.18 "HgN/A
9:50 am43 °FBroken clouds.14 mph71%30.18 "HgN/A
9:20 am43 °FBroken clouds.12 mph71%30.18 "HgN/A
Weather by CustomWeather, © 2017

See weather overviewHow to use our weather pages